TheGetRank SiteMap Page 8483
Home 8433 8434 8435 8436 8437 8438 8439 8440 8441 8442 8443 8444 8445 8446 8447 8448 8449 8450 8451 8452 8453 8454 8455 8456 8457 8458 8459 8460 8461 8462 8463 8464 8465 8466 8467 8468 8469 8470 8471 8472 8473 8474 8475 8476 8477 8478 8479 8480 8481 8482 8483 8484 8485 8486 8487 8488 8489 8490 8491 8492 8493 8494 8495 8496 8497 8498 8499 8500 8501 8502 8503 8504 8505 8506 8507 8508 8509 8510 8511 8512 8513 8514 8515 8516 8517 8518 8519 8520 8521 8522 8523 8524 8525 8526 8527 8528 8529 8530 8531 8532 8533
S.NO. Website Pagerank Alexa Rank Last Updated
8482000 tc-montabaur.de 0 No Rank 2012-02-29 00:56:35
8482001 02.taktaraneh50.com 0 2399124 2012-02-29 00:56:37
8482002 tcbcs.com 0 No Rank 2012-02-29 00:56:37
8482003 taylandturu.com 0 25870495 2012-02-29 00:56:37
8482004 tc-pvc.com 0 No Rank 2012-02-29 00:56:37
8482005 tcatoolstorage.com 0 3691158 2012-02-29 00:56:38
8482006 tcbe.ru 0 No Rank 2012-02-29 00:56:39
8482007 tceim.com 0 No Rank 2012-02-29 00:56:39
8482008 tcfeline.com 0 15617097 2012-02-29 00:56:39
8482009 tceli.com 0 No Rank 2012-02-29 00:56:40
8482010 tcglobalsourcing.com 0 No Rank 2012-02-29 00:56:41
8482011 tcpoodleclub.com 0 20324664 2012-02-29 00:56:42
8482012 taiwan-aboriginal-art.com 0 No Rank 2012-02-29 00:56:42
8482013 tcubesys.com 0 27559159 2012-02-29 00:56:43
8482014 tcp.wellington.net.nz 0 1101606 2012-02-29 00:56:44
8482015 tcrollerhockey.com 0 No Rank 2012-02-29 00:56:44
8482016 tcparts.ch 0 No Rank 2012-02-29 00:56:45
8482017 td-vena.ru 0 No Rank 2012-02-29 00:56:45
8482018 td-berezakeramika.ru 0 1523808 2012-02-29 00:56:46
8482019 itnt.com.br 0 1848822 2012-02-29 00:56:46
8482020 ura-maru.tv 0 471349 2012-02-29 00:56:47
8482021 tdesigns.be 0 13251546 2012-02-29 00:56:47
8482022 tdiradio.com 0 154461 2012-02-29 00:56:48
8482023 pfu.com.cn 0 No Rank 2012-02-29 00:56:48
8482024 99rooms.com 0 811494 2012-02-29 00:56:48
8482025 tdgsportsinternational.com 0 7656540 2012-02-29 00:56:50
8482026 tdmaverick.de 0 7509996 2012-02-29 00:56:50
8482027 tdr.se 0 No Rank 2012-02-29 00:56:50
8482028 02.upla.net 0 21646710 2012-02-29 00:56:50
8482029 chinadtp.jp 0 No Rank 2012-02-29 00:56:51
8482030 tdsibneft.ru 0 No Rank 2012-02-29 00:56:51
8482031 teacherleo.com 0 No Rank 2012-02-29 00:56:52
8482032 tdtdx.com 0 6137495 2012-02-29 00:56:52
8482033 tdnikel.ru 0 No Rank 2012-02-29 00:56:52
8482034 te-ksa.com 0 No Rank 2012-02-29 00:56:53
8482035 wbanews.com 0 463739 2012-02-29 00:56:53
8482036 teachingsites.info 0 No Rank 2012-02-29 00:56:56
8482037 teachmelee.com 0 No Rank 2012-02-29 00:56:56
8482038 teagoetz.com 0 8795279 2012-02-29 00:56:59
8482039 team-omg.com 0 No Rank 2012-02-29 00:56:59
8482040 team-performance.biz 0 21320521 2012-02-29 00:57:00
8482041 teamaceracing.com 0 No Rank 2012-02-29 00:57:01
8482042 team-steinlach-wiesaz.de 0 No Rank 2012-02-29 00:57:03
8482043 teamcannon.com 0 No Rank 2012-02-29 00:57:03
8482044 clunegc.com 0 5812095 2012-02-29 00:57:03
8482045 020.china61.org 0 15133914 2012-02-29 00:57:03
8482046 teamcoachingperu.com 0 No Rank 2012-02-29 00:57:03
8482047 lumedyne.eu 0 14113347 2012-02-29 00:57:03
8482048 team-lsd.net 0 11320461 2012-02-29 00:57:04
8482049 teammcneil.com 0 11573018 2012-02-29 00:57:05
8482050 sentek.co.uk 0 No Rank 2012-02-29 00:57:07
8482051 teamdualdogs.com 0 No Rank 2012-02-29 00:57:07
8482052 teamforeverstrong.com 0 No Rank 2012-02-29 00:57:07
8482053 teammotegi.com 0 No Rank 2012-02-29 00:57:07
8482054 020.dqfang.cn 0 5288205 2012-02-29 00:57:09
8482055 teachersmartonlineeducational.com 0 11331583 2012-02-29 00:57:09
8482056 teampapeterie.ch 0 No Rank 2012-02-29 00:57:09
8482057 teamosterling.se 0 No Rank 2012-02-29 00:57:10
8482058 teamyollick.com 0 No Rank 2012-02-29 00:57:21
8482059 talismanshipping.com 0 No Rank 2012-02-29 00:57:22
8482060 teamwingsindia.com 0 No Rank 2012-02-29 00:57:23
8482061 teamsatten.com 0 14219533 2012-02-29 00:57:23
8482062 dorenbach.ch 0 9546148 2012-02-29 00:57:24
8482063 teatroarena.lt 0 5651729 2012-02-29 00:57:24
8482064 syndikut.org 0 4193377 2012-02-29 00:57:24
8482065 teamquest.biz 0 No Rank 2012-02-29 00:57:24
8482066 teamstarz.net 0 17574763 2012-02-29 00:57:24
8482067 teamspeak3.de 0 877809 2012-02-29 00:57:25
8482068 teamrobertsrealestate.com 0 5846452 2012-02-29 00:57:25
8482069 teamreelaction.com 0 No Rank 2012-02-29 00:57:26
8482070 teatrodelpueblo.org 0 15274217 2012-02-29 00:57:27
8482071 teamshelby.com 0 590806 2012-02-29 00:57:28
8482072 tebcc.com 0 No Rank 2012-02-29 00:57:29
8482073 teatrulnationaliasi.ro 0 3598242 2012-02-29 00:57:30
8482074 teb.cn 0 No Rank 2012-02-29 00:57:30
8482075 0201069.com 0 No Rank 2012-02-29 00:57:30
8482076 tec-sol.jp 0 No Rank 2012-02-29 00:57:30
8482077 tecben.com 0 No Rank 2012-02-29 00:57:30
8482078 tec9java.com 0 No Rank 2012-02-29 00:57:30
8482079 tecdoc-references.com 0 26153338 2012-02-29 00:57:31
8482080 go4awalk.com 0 492035 2012-02-29 00:57:31
8482081 tech-tim.com 0 No Rank 2012-02-29 00:57:31
8482082 techburg.com 0 No Rank 2012-02-29 00:57:32
8482083 bbs.lecturadeltarot.info 0 4908888 2012-02-29 00:57:32
8482084 tech-bond.com 0 No Rank 2012-02-29 00:57:33
8482085 techfriendsca.com 0 No Rank 2012-02-29 00:57:34
8482086 tech-arrow.com 0 No Rank 2012-02-29 00:57:35
8482087 techbreaking.com 0 5326288 2012-02-29 00:57:36
8482088 techflow.net 0 4216675 2012-02-29 00:57:37
8482089 technicalimage.net 0 No Rank 2012-02-29 00:57:37
8482090 techneadvisors.com 0 No Rank 2012-02-29 00:57:38
8482091 techlab.hr 0 25912405 2012-02-29 00:57:38
8482092 techno-aid-taskal.com 0 No Rank 2012-02-29 00:57:38
8482093 watchonlinesoccer.com 0 14531679 2012-02-29 00:57:38
8482094 020.startzoeken.nl 0 408578 2012-02-29 00:57:38
8482095 technicianinabox.com 0 2888284 2012-02-29 00:57:39
8482096 techinvest.org.ua 0 No Rank 2012-02-29 00:57:39
8482097 technogroups.ru 0 2390438 2012-02-29 00:57:40
8482098 technologyeous.com 0 No Rank 2012-02-29 00:57:40
8482099 technologygroup.com 0 8883668 2012-02-29 00:57:40
8482100 technologypools.in 0 3440662 2012-02-29 00:57:41
8482101 technologyworksonline.com 0 No Rank 2012-02-29 00:57:41
8482102 technofleet.be 0 No Rank 2012-02-29 00:57:42
8482103 techpubs.net 0 20926646 2012-02-29 00:57:43
8482104 technostart.nl 0 No Rank 2012-02-29 00:57:43
8482105 technoranki.com 0 25851094 2012-02-29 00:57:44
8482106 technopolis-pk.ru 0 No Rank 2012-02-29 00:57:44
8482107 techspecservice.com 0 No Rank 2012-02-29 00:57:45
8482108 tecnologiaespecializada.info 0 No Rank 2012-02-29 00:57:46
8482109 techsupportdepot.com 0 No Rank 2012-02-29 00:57:47
8482110 tecnolegno-srl.com 0 17841576 2012-02-29 00:57:47
8482111 tecnogas-ir.com 0 9662382 2012-02-29 00:57:47
8482112 tecumsehwoods.com 0 No Rank 2012-02-29 00:57:48
8482113 tecnosat.com.br 0 9717100 2012-02-29 00:57:48
8482114 tecnologiasapropiadas.com 0 6377835 2012-02-29 00:57:48
8482115 tecnolrg.com 0 No Rank 2012-02-29 00:57:48
8482116 champion4000wattgenerator.wordpress.com 0 No Rank 2012-02-29 00:57:50
8482117 teddypixelparadise.com 0 No Rank 2012-02-29 00:57:51
8482118 020.ijia360.com 0 11403 2012-02-29 00:57:51
8482119 tecom.com.pl 0 21760341 2012-02-29 00:57:51
8482120 tedhayestocongress.com 0 No Rank 2012-02-29 00:57:52
8482121 teddypruett.com 0 23730314 2012-02-29 00:57:52
8482122 idealambientes.com.br 0 No Rank 2012-02-29 00:57:53
8482123 teeap.org 0 No Rank 2012-02-29 00:57:54
8482124 teenbiz.ru 0 No Rank 2012-02-29 00:57:56
8482125 tedturnercompany.com 0 No Rank 2012-02-29 00:57:56
8482126 teehus.com 0 17931594 2012-02-29 00:57:57
8482127 0202391.mhs.widyatama.ac.id 0 401379 2012-02-29 00:57:57
8482128 teeneehit.com 0 6029397 2012-02-29 00:57:57
8482129 teesauto.com 0 No Rank 2012-02-29 00:58:00
8482130 teethwhiteningbest.com 0 2030294 2012-02-29 00:58:01
8482131 0201234.com 0 No Rank 2012-02-29 00:58:01
8482132 teeuwen-immobilien.de 0 12683130 2012-02-29 00:58:03
8482133 teethwhiteningtipsonline.com 0 7876447 2012-02-29 00:58:05
8482134 teeniechor.de 0 18849535 2012-02-29 00:58:05
8482135 teflontony.com 0 22740149 2012-02-29 00:58:05
8482136 tehamacountyrcd.org 0 23170611 2012-02-29 00:58:06
8482137 tehnometalika.hr 0 No Rank 2012-02-29 00:58:07
8482138 tehnomagazin.com 0 691755 2012-02-29 00:58:08
8482139 tehnoform.com 0 No Rank 2012-02-29 00:58:08
8482140 tehengaun.com 0 25881325 2012-02-29 00:58:08
8482141 020186.net 0 No Rank 2012-02-29 00:58:08
8482142 tegrastate.lt 0 6262005 2012-02-29 00:58:09
8482143 tango-n.com 0 No Rank 2012-02-29 00:58:11
8482144 tehtorg.org 0 8037386 2012-02-29 00:58:12
8482145 tehnoterm.com 0 No Rank 2012-02-29 00:58:18
8482146 tehuurtekoop.com 0 No Rank 2012-02-29 00:58:21
8482147 tekfix.net 0 No Rank 2012-02-29 00:58:21
8482148 tekateki.com 0 No Rank 2012-02-29 00:58:23
8482149 literature.puertoricosupplier.com 0 4875761 2012-02-29 00:58:24
8482150 tek4um.com 0 No Rank 2012-02-29 00:58:25
8482151 teknostroy.com 0 No Rank 2012-02-29 00:58:26
8482152 02027504.boss.com.tw 0 166423 2012-02-29 00:58:30
8482153 bodybyvishakemix.com 0 11384140 2012-02-29 00:58:30
8482154 teklinksystems.com 0 No Rank 2012-02-29 00:58:31
8482155 telamon.dk 0 No Rank 2012-02-29 00:58:32
8482156 tekstil-kimyasal.com 0 26929309 2012-02-29 00:58:32
8482157 tegaourense.tk 0 No Rank 2012-02-29 00:58:32
8482158 telbo.net 0 7114982 2012-02-29 00:58:32
8482159 tejagencytestingsite.com 0 No Rank 2012-02-29 00:58:33
8482160 teksseafoods.com 0 17378991 2012-02-29 00:58:33
8482161 tejasviconstruction.com 0 No Rank 2012-02-29 00:58:34
8482162 telcomsec.com 0 No Rank 2012-02-29 00:58:34
8482163 tekstypiosenek.gangsterka.pl 0 6399372 2012-02-29 00:58:36
8482164 tekimsan.com.tr 0 14171268 2012-02-29 00:58:36
8482165 telecom-broker-sip-trunking.com 0 No Rank 2012-02-29 00:58:38
8482166 teleionconsulting.com 0 12583736 2012-02-29 00:58:38
8482167 020365.com 0 5953362 2012-02-29 00:58:39
8482168 telelight.com 0 No Rank 2012-02-29 00:58:39
8482169 telefonia.toplista.pl 0 30849 2012-02-29 00:58:39
8482170 telemedicina.lt 0 No Rank 2012-02-29 00:58:40
8482171 telefonoplysning.dk 0 No Rank 2012-02-29 00:58:40
8482172 telecome.ru 0 No Rank 2012-02-29 00:58:41
8482173 telescopelanes.com 0 No Rank 2012-02-29 00:58:43
8482174 televizioon.com 0 2849285 2012-02-29 00:58:44
8482175 telephonedatacomm.net 0 No Rank 2012-02-29 00:58:44
8482176 telesentry.org 0 14066107 2012-02-29 00:58:45
8482177 teknoexper.com 0 1261473 2012-02-29 00:58:45
8482178 uslugi.atspace.tv 0 422173 2012-02-29 00:58:47
8482179 telewizory-lcd.org 0 No Rank 2012-02-29 00:58:47
8482180 tell-someone-who-cares.com 0 No Rank 2012-02-29 00:58:48
8482181 tellurideradio.com 0 No Rank 2012-02-29 00:58:49
8482182 telluriumcomm.com 0 No Rank 2012-02-29 00:58:50
8482183 telltalesouls.com 0 15753087 2012-02-29 00:58:50
8482184 telkeruhe.nl 0 No Rank 2012-02-29 00:58:51
8482185 telovation.com 0 763098 2012-02-29 00:58:51
8482186 tunnekoera.ee 0 No Rank 2012-02-29 00:58:52
8482187 telta-m.ru 0 11130012 2012-02-29 00:58:53
8482188 telochka.com 0 11084421 2012-02-29 00:58:53
8482189 putany-uslugi.atspace.tv 0 422173 2012-02-29 00:58:54
8482190 telmana33.ru 0 No Rank 2012-02-29 00:58:54
8482191 temarichallengegallery.org 0 No Rank 2012-02-29 00:58:55
8482192 telvicom.com 0 No Rank 2012-02-29 00:58:56
8482193 temoana.info 0 No Rank 2012-02-29 00:58:56
8482194 temahallen.com 0 15874722 2012-02-29 00:58:57
8482195 temeculajazzfest.com 0 No Rank 2012-02-29 00:58:58
8482196 temes.cz 0 No Rank 2012-02-29 00:58:58
8482197 intim-uslugi.atspace.tv 0 422173 2012-02-29 00:59:00
8482198 temp-www3.com 0 8442830 2012-02-29 00:59:01
8482199 temperancehouse.com 0 No Rank 2012-02-29 00:59:01
8482200 templarassaultsystems.com 0 19580485 2012-02-29 00:59:01
8482201 templetonimaging.com 0 No Rank 2012-02-29 00:59:02
8482202 templeshirtikvah.org 0 No Rank 2012-02-29 00:59:02
8482203 temptingtarts.com 0 18652407 2012-02-29 00:59:03
8482204 seks-uslugi.16mb.com 0 13501 2012-02-29 00:59:06
8482205 tenerife-apartments2rent.com 0 3970151 2012-02-29 00:59:07
8482206 temanphotographer.net 0 No Rank 2012-02-29 00:59:08
8482207 tenfiftyb.com 0 17153344 2012-02-29 00:59:08
8482208 tendre.jp 0 No Rank 2012-02-29 00:59:08
8482209 tenisokulu.com 0 No Rank 2012-02-29 00:59:12
8482210 tennesseedriveins.com 0 No Rank 2012-02-29 00:59:15
8482211 tenneyclemons.com 0 17581453 2012-02-29 00:59:17
8482212 individualki.seks-uslugi.16mb.com 0 13501 2012-02-29 00:59:18
8482213 tennisclubvirton.com 0 No Rank 2012-02-29 00:59:18
8482214 tentenshoes.com 0 27228455 2012-02-29 00:59:18
8482215 tennisleaguefinder.com 0 24199282 2012-02-29 00:59:19
8482216 tensway.com 0 3066943 2012-02-29 00:59:20
8482217 tent-serv.ru 0 No Rank 2012-02-29 00:59:21
8482218 tenshimo.com 0 4465382 2012-02-29 00:59:21
8482219 tentmasters.net 0 No Rank 2012-02-29 00:59:21
8482220 tentsanddomes.com 0 No Rank 2012-02-29 00:59:23
8482221 prostitutki.seks-uslugi.16mb.com 0 13501 2012-02-29 00:59:26
8482222 tenutabarbon.it 0 No Rank 2012-02-29 00:59:26
8482223 teodorowka.domypomocy.pl 0 7194035 2012-02-29 00:59:26
8482224 tentusbg.com 0 27378302 2012-02-29 00:59:26
8482225 tequieroverde.com 0 14426354 2012-02-29 00:59:27
8482226 teplonasos.su 0 No Rank 2012-02-29 00:59:28
8482227 teploihorosho.ru 0 No Rank 2012-02-29 00:59:29
8482228 teograd.com 0 7055852 2012-02-29 00:59:30
8482229 teplounas.ru 0 13601703 2012-02-29 00:59:30
8482230 tequm.com 0 No Rank 2012-02-29 00:59:32
8482231 terakoya-iida.jp 0 No Rank 2012-02-29 00:59:32
8482232 terapatricknude.com 0 No Rank 2012-02-29 00:59:33
8482233 intertribal.net 0 No Rank 2012-02-29 00:59:33
8482234 terealvarez.com 0 No Rank 2012-02-29 00:59:34
8482235 terapiazwierzat.pl 0 No Rank 2012-02-29 00:59:34
8482236 terchova.sk 0 2235145 2012-02-29 00:59:37
8482237 terimleri.com 0 802383 2012-02-29 00:59:38
8482238 terminatoram.net 0 No Rank 2012-02-29 00:59:39
8482239 termlifeinsuranceratesusa.com 0 23498278 2012-02-29 00:59:40
8482240 termatrans.pl 0 10876948 2012-02-29 00:59:40
8482241 kapot-chernigov.bamper.org 0 4609670 2012-02-29 00:59:40
8482242 ternopil.iapm.edu.ua 0 1913213 2012-02-29 00:59:42
8482243 terraavto.com 0 No Rank 2012-02-29 00:59:43
8482244 terracot-hellas.gr 0 No Rank 2012-02-29 00:59:44
8482245 terra-tec.com 0 No Rank 2012-02-29 00:59:44
8482246 terraconexus.com 0 No Rank 2012-02-29 00:59:46
8482247 terpsichore-musica.com 0 21207466 2012-02-29 00:59:46
8482248 terrain-chatillon-avendre.fr 0 No Rank 2012-02-29 00:59:46
8482249 terano1.com 0 No Rank 2012-02-29 00:59:46
8482250 terrametricsag.com 0 No Rank 2012-02-29 00:59:47
8482251 terraether.co.za 0 No Rank 2012-02-29 00:59:47
8482252 terrakino.net 0 No Rank 2012-02-29 00:59:48
8482253 terrancetoliver.org 0 No Rank 2012-02-29 00:59:48
8482254 terranichol.com 0 No Rank 2012-02-29 00:59:50
8482255 seksuslugi.x10.bz 0 No Rank 2012-02-29 00:59:51
8482256 terranovathermal.com 0 No Rank 2012-02-29 00:59:51
8482257 terraplane.co.za 0 4941908 2012-02-29 00:59:52
8482258 vienajoias.com.br 0 No Rank 2012-02-29 00:59:52
8482259 terrellsheatingandair.com 0 No Rank 2012-02-29 00:59:52
8482260 terriandphil.com 0 No Rank 2012-02-29 00:59:52
8482261 terraspicecompany.com 0 12677874 2012-02-29 00:59:53
8482262 bsuir.by 0 188273 2012-02-29 00:59:53
8482263 terrimccracken.com 0 No Rank 2012-02-29 00:59:54
8482264 upsup.net 0 No Rank 2012-02-29 00:59:54
8482265 territe.com 0 No Rank 2012-02-29 00:59:55
8482266 terriperras.com 0 No Rank 2012-02-29 00:59:55
8482267 tcc-chaokoh.com 0 8511866 2012-02-29 00:59:57
8482268 terryrondberg.com 0 25060140 2012-02-29 00:59:58
8482269 terrylane.info 0 10609648 2012-02-29 00:59:58
8482270 terryscosycouch.com 0 No Rank 2012-02-29 00:59:59
8482271 tersing.com 0 No Rank 2012-02-29 00:59:59
8482272 tesoutils.com 0 No Rank 2012-02-29 01:00:00
8482273 tessamariewines.com 0 No Rank 2012-02-29 01:00:01
8482274 tesouro-outlet-shop.jp 0 7032931 2012-02-29 01:00:02
8482275 berlitz.hr 0 1906489 2012-02-29 01:00:03
8482276 test.lemarchedutravail.fr 0 358845 2012-02-29 01:00:03
8482277 tessabanponsa.com 0 No Rank 2012-02-29 01:00:04
8482278 testerydiagnostyczne.com 0 No Rank 2012-02-29 01:00:05
8482279 syxyhn.com 0 1156883 2012-02-29 01:00:05
8482280 terryschaefer.com 0 No Rank 2012-02-29 01:00:06
8482281 tetherpad.com 0 9832782 2012-02-29 01:00:06
8482282 testydopolicji.fora.pl 0 7806 2012-02-29 01:00:07
8482283 testsondi.ru 0 No Rank 2012-02-29 01:00:07
8482284 teterinsky.ru 0 8352808 2012-02-29 01:00:08
8482285 tetuzine.com 0 No Rank 2012-02-29 01:00:08
8482286 testsite.runemester.dk 0 12638015 2012-02-29 01:00:08
8482287 wow.pspsell.com 0 20803442 2012-02-29 01:00:15
8482288 tev.ru 0 11244327 2012-02-29 01:00:20
8482289 fmlcpas.com 0 No Rank 2012-02-29 01:00:21
8482290 texascustomgrills.com 0 No Rank 2012-02-29 01:00:23
8482291 tevanslaw.com 0 No Rank 2012-02-29 01:00:23
8482292 texasbattery.com 0 24497624 2012-02-29 01:00:24
8482293 tevci.com 0 7180732 2012-02-29 01:00:25
8482294 texasenergysolution.com 0 No Rank 2012-02-29 01:00:25
8482295 texashuntinglandforsale.com 0 22932833 2012-02-29 01:00:26
8482296 texaspropertytitle.com 0 19651582 2012-02-29 01:00:30
8482297 texasphotobooths.com 0 No Rank 2012-02-29 01:00:30
8482298 texasrealestatelicensecourses.com 0 19880967 2012-02-29 01:00:30
8482299 texasnonprofits.org 0 2248195 2012-02-29 01:00:30
8482300 texasranger-swe.com 0 No Rank 2012-02-29 01:00:31
8482301 texasmoversnetwork.com 0 10430539 2012-02-29 01:00:32
8482302 texaslilies.com 0 No Rank 2012-02-29 01:00:32
8482303 texasvoipservices.com 0 No Rank 2012-02-29 01:00:35
8482304 texmar-przedze.pl 0 No Rank 2012-02-29 01:00:37
8482305 texstylecorp.com 0 27581497 2012-02-29 01:00:38
8482306 texttospeechconverter.com 0 No Rank 2012-02-29 01:00:41
8482307 textadsdirect.com 0 14106527 2012-02-29 01:00:41
8482308 viedegeek.fr 0 299221 2012-02-29 01:00:41
8482309 textilcaboblancosac.com 0 No Rank 2012-02-29 01:00:41
8482310 text.co.il 0 27021712 2012-02-29 01:00:41
8482311 tf1-ecole.com 0 No Rank 2012-02-29 01:00:44
8482312 textildepo.com 0 No Rank 2012-02-29 01:00:44
8482313 texkniga.com.ua 0 16894995 2012-02-29 01:00:45
8482314 tfg.as 0 12205079 2012-02-29 01:00:45
8482315 calciumbo.de 0 18974469 2012-02-29 01:00:45
8482316 tfldev.com 0 No Rank 2012-02-29 01:00:46
8482317 teva4you.com 0 6851531 2012-02-29 01:00:46
8482318 tfn.to 0 No Rank 2012-02-29 01:00:46
8482319 tfcmcallen.com 0 18652446 2012-02-29 01:00:46
8482320 homesnboise.com 0 No Rank 2012-02-29 01:00:46
8482321 tullowoil.ie 0 436783 2012-02-29 01:00:46
8482322 tforcventures.com 0 No Rank 2012-02-29 01:00:47
8482323 tfkarachi.com 0 No Rank 2012-02-29 01:00:47
8482324 tgallc.com 0 No Rank 2012-02-29 01:00:49
8482325 tgillarts.net 0 No Rank 2012-02-29 01:00:49
8482326 netbirds.net 0 3775334 2012-02-29 01:00:51
8482327 tgordi.com 0 No Rank 2012-02-29 01:00:51
8482328 tg191.com 0 1812985 2012-02-29 01:00:51
8482329 tgh.co.in 0 19390240 2012-02-29 01:00:51
8482330 thaibopowerkickboxing.com 0 No Rank 2012-02-29 01:00:53
8482331 ualhost.com.br 0 877145 2012-02-29 01:00:53
8482332 thaicaferestaurant.com 0 14448743 2012-02-29 01:00:53
8482333 tgtk.org 0 No Rank 2012-02-29 01:00:53
8482334 pptshare.com 0 2666405 2012-02-29 01:00:54
8482335 blakboxx.com 0 No Rank 2012-02-29 01:00:54
8482336 thaicct.com 0 No Rank 2012-02-29 01:00:55
8482337 thaiconveyorcomponent.com 0 7899391 2012-02-29 01:00:56
8482338 thaigrains.com 0 No Rank 2012-02-29 01:00:56
8482339 thaidonut.com 0 7853312 2012-02-29 01:00:56
8482340 thaifranchisecenter.com 0 119590 2012-02-29 01:00:57
8482341 thailandivfcenter.com 0 23269967 2012-02-29 01:00:58
8482342 thailandattraction.com 0 17605023 2012-02-29 01:00:59
8482343 thailand-real-estate.info 0 1319183 2012-02-29 01:00:59
8482344 manafiji.com 0 2004251 2012-02-29 01:00:59
8482345 fisga.com.br 0 No Rank 2012-02-29 01:01:00
8482346 davyvain.com 0 3984921 2012-02-29 01:01:00
8482347 thaimusashi.com 0 11216837 2012-02-29 01:01:01
8482348 video-hd.net 0 No Rank 2012-02-29 01:01:01
8482349 thailandpackagestours.com 0 9215456 2012-02-29 01:01:01
8482350 thailandpflege.com 0 No Rank 2012-02-29 01:01:03
8482351 thaiproshopping.com 0 No Rank 2012-02-29 01:01:03
8482352 thaispicy.com 0 11744092 2012-02-29 01:01:04
8482353 thamesprinting.net 0 22932935 2012-02-29 01:01:04
8482354 grossi.co.uk 0 No Rank 2012-02-29 01:01:04
8482355 thankachicken.com 0 No Rank 2012-02-29 01:01:06
8482356 thalsotab.com 0 No Rank 2012-02-29 01:01:06
8482357 besttvmediaplayer.blogspot.com 0 No Rank 2012-02-29 01:01:06
8482358 thaitba.com 0 No Rank 2012-02-29 01:01:07
8482359 boys-winter-coats-on-sale.blogspot.com 0 No Rank 2012-02-29 01:01:08
8482360 thaonhandecal.com 0 No Rank 2012-02-29 01:01:08
8482361 mountingbracketforcarstereo.blogspot.com 0 No Rank 2012-02-29 01:01:10
8482362 thatjonathanriggs.com 0 No Rank 2012-02-29 01:01:10
8482363 thar.ru 0 No Rank 2012-02-29 01:01:11
8482364 nikoncoolpixs410014mpdigit.blogspot.com 0 No Rank 2012-02-29 01:01:13
8482365 thawtekorea.com 0 No Rank 2012-02-29 01:01:14
8482366 thavanesan.com 0 No Rank 2012-02-29 01:01:14
8482367 thcs-nguyentrai-dongha-quangtri.edu.vn 0 No Rank 2012-02-29 01:01:16
8482368 u.funon1.co.cc 0 No Rank 2012-02-29 01:01:20
8482369 the-crux.com 0 No Rank 2012-02-29 01:01:21
8482370 the-accommodation-directory.com 0 19463009 2012-02-29 01:01:23
8482371 the-colorful-life.com 0 No Rank 2012-02-29 01:01:23
8482372 the-healingtouch.com 0 No Rank 2012-02-29 01:01:24
8482373 the-injury-attorneys.net 0 No Rank 2012-02-29 01:01:25
8482374 the-ards.com 0 No Rank 2012-02-29 01:01:26
8482375 opendays.com 0 2269140 2012-02-29 01:01:28
8482376 the-last-leaf.com 0 No Rank 2012-02-29 01:01:28
8482377 the-outfitter.us 0 No Rank 2012-02-29 01:01:28
8482378 matthiaskroll.de 0 No Rank 2012-02-29 01:01:29
8482379 the-restaurant-magician.com 0 23679707 2012-02-29 01:01:29
8482380 the-psoriasis-solution.com 0 24757466 2012-02-29 01:01:29
8482381 thcs-nguyentrai-vinhlinh-quangtri.edu.vn 0 No Rank 2012-02-29 01:01:32
8482382 the-waikiki-beach-tower.com 0 No Rank 2012-02-29 01:01:33
8482383 the-silver-river.com 0 6343880 2012-02-29 01:01:34
8482384 the-salvation-riders-mc.com 0 17841618 2012-02-29 01:01:34
8482385 the-urban-survivalist.com 0 1254387 2012-02-29 01:01:35
8482386 the-silvertip.com 0 No Rank 2012-02-29 01:01:35
8482387 the-whitebear.com 0 3858789 2012-02-29 01:01:36
8482388 the-spiritual-leadership-centre.com 0 No Rank 2012-02-29 01:01:36
8482389 the1920club.com 0 No Rank 2012-02-29 01:01:40
8482390 the1stopwebdesign.com 0 No Rank 2012-02-29 01:01:41
8482391 spotesya.com 0 477977 2012-02-29 01:01:42
8482392 theacademicproject.com 0 No Rank 2012-02-29 01:01:42
8482393 the200forsma.com 0 10569776 2012-02-29 01:01:42
8482394 theaestheticsguide.com 0 3285566 2012-02-29 01:01:44
8482395 the2seasons.com 0 3009663 2012-02-29 01:01:44
8482396 the404s.com 0 No Rank 2012-02-29 01:01:46
8482397 thealbaniandirectory.com 0 2516778 2012-02-29 01:01:46
8482398 theafccenter.com 0 No Rank 2012-02-29 01:01:46
8482399 theadventuresofsally.com 0 No Rank 2012-02-29 01:01:46
8482400 theallergicgourmet.com 0 No Rank 2012-02-29 01:01:47
8482401 theaffordabledental.com 0 9151017 2012-02-29 01:01:47
8482402 thealienheads.com 0 No Rank 2012-02-29 01:01:47
8482403 thealexandermylessalon.com 0 2617947 2012-02-29 01:01:48
8482404 thealicious.com 0 No Rank 2012-02-29 01:01:48
8482405 theallnaturalhealthycookie.com 0 No Rank 2012-02-29 01:01:50
8482406 hehaocha.com 0 No Rank 2012-02-29 01:01:51
8482407 portalsaz.com 0 1923151 2012-02-29 01:01:52
8482408 theartisanbycathee.com 0 No Rank 2012-02-29 01:01:52
8482409 dmse.scripts.mit.edu 0 1193 2012-02-29 01:01:53
8482410 theantiwrinkleproducts.com 0 No Rank 2012-02-29 01:01:54
8482411 thealchemyagency.com 0 No Rank 2012-02-29 01:01:54
8482412 theater-domino.de 0 No Rank 2012-02-29 01:01:54
8482413 theantelopepub.com 0 16635965 2012-02-29 01:01:55
8482414 theater-konzert.de 0 No Rank 2012-02-29 01:01:55
8482415 theater.biz 0 4609335 2012-02-29 01:01:56
8482416 theartofgifting.com 0 No Rank 2012-02-29 01:01:56
8482417 theatroe.com 0 No Rank 2012-02-29 01:01:58
8482418 theatre-atelier.ch 0 No Rank 2012-02-29 01:01:58
8482419 theatricks.org 0 7809198 2012-02-29 01:01:58
8482420 theauctionblueprint.com 0 18863140 2012-02-29 01:01:58
8482421 theathletesplate.com 0 712598 2012-02-29 01:01:59
8482422 telemadrid.es 0 64697 2012-02-29 01:01:59
8482423 3g-gifts.com 0 19372879 2012-02-29 01:02:00
8482424 ferragensparaiba.com.br 0 No Rank 2012-02-29 01:02:00
8482425 thebackgrounds.com 0 No Rank 2012-02-29 01:02:00
8482426 dcita.com.au 0 No Rank 2012-02-29 01:02:00
8482427 thebakertaylorfoundation.org 0 No Rank 2012-02-29 01:02:00
8482428 thebalancedbrain.com 0 22529275 2012-02-29 01:02:01
8482429 theawesomeassistant.com 0 3650577 2012-02-29 01:02:02
8482430 theballparkonline.com 0 18059958 2012-02-29 01:02:02
8482431 thebasfarm.com 0 No Rank 2012-02-29 01:02:04
8482432 thebarnacleinn.com 0 No Rank 2012-02-29 01:02:04
8482433 thebarcode.net 0 11052715 2012-02-29 01:02:04
8482434 thebarbecuepitrestaurant.com 0 18750325 2012-02-29 01:02:05
8482435 thebandprana.com 0 No Rank 2012-02-29 01:02:05
8482436 thebartman.com 0 No Rank 2012-02-29 01:02:05
8482437 thebazaar.org 0 No Rank 2012-02-29 01:02:06
8482438 thebeamfoundation.org 0 No Rank 2012-02-29 01:02:07
8482439 thebathroom.co.za 0 15566658 2012-02-29 01:02:07
8482440 thebassment.co.nz 0 No Rank 2012-02-29 01:02:09
8482441 dc-web.co.uk 0 No Rank 2012-02-29 01:02:09
8482442 pacwheel.com 0 No Rank 2012-02-29 01:02:12
8482443 glavbuh.info 0 5487018 2012-02-29 01:02:16
8482444 whoisdom.net 0 No Rank 2012-02-29 01:02:17
8482445 thebedfordgroupinc.com 0 No Rank 2012-02-29 01:02:18
8482446 cashcall911.com 0 4600358 2012-02-29 01:02:21
8482447 thebergehomes.com 0 12610201 2012-02-29 01:02:21
8482448 thebehrpaint.com 0 No Rank 2012-02-29 01:02:22
8482449 thebeveragesource.com 0 No Rank 2012-02-29 01:02:22
8482450 thebellamossfoundation.com 0 2990678 2012-02-29 01:02:25
8482451 thebestclosings.com 0 No Rank 2012-02-29 01:02:26
8482452 labotama.com 0 No Rank 2012-02-29 01:02:28
8482453 uploadshare.cz 0 20750943 2012-02-29 01:02:30
8482454 thebestshop.nl 0 10665468 2012-02-29 01:02:31
8482455 thebestdehumidifierreviews.com 0 9384763 2012-02-29 01:02:32
8482456 thebikehubspokane.com 0 10993044 2012-02-29 01:02:33
8482457 thebetterpillow.com 0 No Rank 2012-02-29 01:02:36
8482458 thebeadz.com 0 No Rank 2012-02-29 01:02:37
8482459 theblaisdellgroup.com 0 No Rank 2012-02-29 01:02:39
8482460 thebigtexastoyrun.com 0 3841596 2012-02-29 01:02:39
8482461 thebluetaco.com 0 No Rank 2012-02-29 01:02:40
8482462 theboatguysusa.com 0 No Rank 2012-02-29 01:02:40
8482463 thebilliardpage.com 0 No Rank 2012-02-29 01:02:41
8482464 theboardrock.com 0 No Rank 2012-02-29 01:02:41
8482465 thebiorefineryexchange.com 0 No Rank 2012-02-29 01:02:41
8482466 theblackartist.com 0 No Rank 2012-02-29 01:02:41
8482467 thebodhi.nl 0 No Rank 2012-02-29 01:02:42
8482468 tjdurbin.com 0 No Rank 2012-02-29 01:02:43
8482469 voffk.org.ru 0 No Rank 2012-02-29 01:02:45
8482470 thebodyboutiquedayspa.com 0 21722582 2012-02-29 01:02:45
8482471 0204510.idv.st 0 326344 2012-02-29 01:02:46
8482472 thebonesstoyshop.com 0 No Rank 2012-02-29 01:02:46
8482473 thebodybible.org 0 17948723 2012-02-29 01:02:46
8482474 thebootrestaurant.com 0 11498268 2012-02-29 01:02:46
8482475 thebirdgallery.com 0 No Rank 2012-02-29 01:02:46
8482476 thebrickpath.com 0 10101561 2012-02-29 01:02:48
8482477 thebestnest.co.nz 0 No Rank 2012-02-29 01:02:49
8482478 thebowlingapproach.com 0 5798319 2012-02-29 01:02:49
8482479 thebiggiftlist.com 0 6983116 2012-02-29 01:02:49
8482480 thebridalgallerygroup.com 0 7330540 2012-02-29 01:02:50
8482481 thebreakawayacademy.com 0 No Rank 2012-02-29 01:02:50
8482482 thebridgeny.com 0 9978917 2012-02-29 01:02:51
8482483 magellan.net 0 26395653 2012-02-29 01:02:52
8482484 thebrothersburn.com 0 No Rank 2012-02-29 01:02:53
8482485 thebugnappers.com 0 No Rank 2012-02-29 01:02:53
8482486 thebroreport.com 0 No Rank 2012-02-29 01:02:53
8482487 thebestcoffeepot.com 0 No Rank 2012-02-29 01:02:54
8482488 thebestwaterfiltration.com 0 No Rank 2012-02-29 01:02:54
8482489 thebullsshop.com 0 7478653 2012-02-29 01:02:56
8482490 thecaliforniatheatre.com 0 14775135 2012-02-29 01:02:56
8482491 thebyra.org 0 No Rank 2012-02-29 01:02:58
8482492 thecardinalsnest.ca 0 15152818 2012-02-29 01:03:00
8482493 mw3gameplayvideos.com 0 No Rank 2012-02-29 01:03:00
8482494 thecaseycollection.com 0 16604386 2012-02-29 01:03:01
8482495 thecatmommy.com 0 No Rank 2012-02-29 01:03:01
8482496 thecareregistry.com 0 25273692 2012-02-29 01:03:01
8482497 thecatnook.com 0 No Rank 2012-02-29 01:03:03
8482498 thecenternc.org 0 No Rank 2012-02-29 01:03:04
8482499 statemix.com 0 26082227 2012-02-29 01:03:04
8482500 thecelticdirectory.com 0 No Rank 2012-02-29 01:03:04
8482501 thecarlegacyusa.com 0 18423257 2012-02-29 01:03:05
8482502 thecerbatgem.com 0 14973934 2012-02-29 01:03:06
8482503 thechallengerschool.com 0 No Rank 2012-02-29 01:03:06
8482504 thebushleague.com 0 No Rank 2012-02-29 01:03:06
8482505 thechanlist.com 0 809686 2012-02-29 01:03:07
8482506 thechaingang.cc 0 9872678 2012-02-29 01:03:09
8482507 blog.mtphillips.com 0 4661886 2012-02-29 01:03:09
8482508 thechildrenscenterinc.org 0 No Rank 2012-02-29 01:03:10
8482509 thechicago99ers.org 0 No Rank 2012-02-29 01:03:12
8482510 thechopperads.com 0 No Rank 2012-02-29 01:03:14
8482511 individualki.seksuslugi.x10.bz 0 No Rank 2012-02-29 01:03:16
8482512 theclassicrockshow.com 0 6853743 2012-02-29 01:03:21
8482513 thecinnamoncafe.com 0 27744499 2012-02-29 01:03:21
8482514 theclearingaudio.com 0 2945021 2012-02-29 01:03:21
8482515 thecleaningservice.net 0 No Rank 2012-02-29 01:03:22
8482516 thecinemania.com 0 7455604 2012-02-29 01:03:22
8482517 experteer.ch 0 138237 2012-02-29 01:03:22
8482518 thecoliseumpub.com 0 19723435 2012-02-29 01:03:26
8482519 thecollegeforbusiness.com 0 9761564 2012-02-29 01:03:26
8482520 thecommonsatwestcauseway.com 0 No Rank 2012-02-29 01:03:27
8482521 thecolletteteam.com 0 No Rank 2012-02-29 01:03:27
8482522 thecompass2269.com 0 No Rank 2012-02-29 01:03:27
8482523 thecominginsurrection.org 0 No Rank 2012-02-29 01:03:28
8482524 theclogandbillycock.com 0 6292068 2012-02-29 01:03:28
8482525 thecleansetrend.com 0 22412224 2012-02-29 01:03:28
8482526 cisterna.apis.si 0 No Rank 2012-02-29 01:03:29
8482527 thecouchmonster.com 0 No Rank 2012-02-29 01:03:29
8482528 thecornwalllocal.com 0 10967115 2012-02-29 01:03:29
8482529 thecrazyhorses.com 0 No Rank 2012-02-29 01:03:33
8482530 thecreeksideinn.com 0 9138921 2012-02-29 01:03:33
8482531 thecyberspa.com 0 No Rank 2012-02-29 01:03:33
8482532 thecrossfitbox.com 0 6595178 2012-02-29 01:03:33
8482533 thecssblog.com 0 3323820 2012-02-29 01:03:33
8482534 thecrazypc.com 0 2023995 2012-02-29 01:03:34
8482535 thecyberspider.com 0 No Rank 2012-02-29 01:03:34
8482536 thecurb.us 0 14168867 2012-02-29 01:03:35
8482537 thecreems.com 0 No Rank 2012-02-29 01:03:36
8482538 go4cdkey.com 0 18244875 2012-02-29 01:03:37
8482539 thedailycreativefoodco.com 0 1140166 2012-02-29 01:03:38
8482540 thedashipping.com 0 No Rank 2012-02-29 01:03:38
8482541 theknowe.net 0 15241506 2012-02-29 01:03:39
8482542 thedancestreetballroom.com 0 No Rank 2012-02-29 01:03:39
8482543 thedeliverygirls.com 0 No Rank 2012-02-29 01:03:39
8482544 thedavincicodegame.com 0 21489130 2012-02-29 01:03:40
8482545 thedentalgeek.com 0 5881554 2012-02-29 01:03:40
8482546 thedelionthenet.com 0 No Rank 2012-02-29 01:03:40
8482547 thedesignfirm.com 0 3947695 2012-02-29 01:03:40
8482548 thederbyshirenetwork.org 0 No Rank 2012-02-29 01:03:41
8482549 thedescenders.com 0 No Rank 2012-02-29 01:03:42
8482550 thedeltarockets.com 0 No Rank 2012-02-29 01:03:42
8482551 v-doctor.net 0 No Rank 2012-02-29 01:03:44
8482552 thediamonds.ca 0 16471960 2012-02-29 01:03:46
8482553 thedesignhaven.com 0 No Rank 2012-02-29 01:03:46
8482554 thedhobiexpress.com 0 17280314 2012-02-29 01:03:47
8482555 thedollmaker2nursery.com 0 No Rank 2012-02-29 01:03:47
8482556 thedjaycompany.com 0 19307035 2012-02-29 01:03:48
8482557 thedoorofhope.co.il 0 No Rank 2012-02-29 01:03:48
8482558 thedivineinheritance.com 0 No Rank 2012-02-29 01:03:48
8482559 thedevilsgarage.com 0 No Rank 2012-02-29 01:03:49
8482560 thedoultongang.com 0 No Rank 2012-02-29 01:03:50
8482561 thedrae.com 0 No Rank 2012-02-29 01:03:50
8482562 thedogdiarrheatreatments.com 0 No Rank 2012-02-29 01:03:51
8482563 thedrillingcompany.net 0 No Rank 2012-02-29 01:03:52
8482564 thedreamersunited.com 0 No Rank 2012-02-29 01:03:53
8482565 thedugout.ca 0 No Rank 2012-02-29 01:03:53
8482566 thedropcardking.com 0 No Rank 2012-02-29 01:03:53
8482567 thedrycleanerbyval.com 0 No Rank 2012-02-29 01:03:53
8482568 theelectriccomedyhour.com 0 No Rank 2012-02-29 01:03:54
8482569 theechochurch.com 0 No Rank 2012-02-29 01:03:54
8482570 gritoalternativo.com 0 No Rank 2012-02-29 01:03:56
8482571 theendmc.com 0 20664231 2012-02-29 01:03:57
8482572 theeuwes.cogpsy.nl 0 No Rank 2012-02-29 01:03:57
8482573 thefatsisterscookbook.com 0 No Rank 2012-02-29 01:04:00
8482574 thefamilyvent.com 0 18273096 2012-02-29 01:04:00
8482575 thefamilyfiorelli.com 0 No Rank 2012-02-29 01:04:00
8482576 thefashionpopo.net 0 No Rank 2012-02-29 01:04:00
8482577 theenprogroup.com 0 20048458 2012-02-29 01:04:00
8482578 thefilmeditor.com 0 3972773 2012-02-29 01:04:00
8482579 thefarmrestaurant.ie 0 4555409 2012-02-29 01:04:01
8482580 thefineartoftravel.com 0 No Rank 2012-02-29 01:04:01
8482581 theengineeringexpertblog.com 0 No Rank 2012-02-29 01:04:03
8482582 thefishinfool.com 0 No Rank 2012-02-29 01:04:03
8482583 chlyrics.net 0 315554 2012-02-29 01:04:04
8482584 juedische.at 0 765292 2012-02-29 01:04:04
8482585 thefolkartworkshoppe.com 0 No Rank 2012-02-29 01:04:04
8482586 thefitcast.com 0 2125731 2012-02-29 01:04:05
8482587 thefiretapes.com 0 No Rank 2012-02-29 01:04:05
8482588 theformulaforfinancialfreedom.org 0 No Rank 2012-02-29 01:04:06
8482589 thefitpost.com 0 20847241 2012-02-29 01:04:06
8482590 theevilschool.com 0 No Rank 2012-02-29 01:04:07
8482591 thefortstriders.com 0 No Rank 2012-02-29 01:04:07
8482592 thefountainofleads.com 0 No Rank 2012-02-29 01:04:08
8482593 basicsite.com.br 0 No Rank 2012-02-29 01:04:08
8482594 theflooddoctor.com 0 19281159 2012-02-29 01:04:08
8482595 thefourthaxis.com 0 No Rank 2012-02-29 01:04:09
8482596 thefourteenthchair.com 0 No Rank 2012-02-29 01:04:09
8482597 topdownprocessing.posterous.com 0 No Rank 2012-02-29 01:04:10
8482598 thefreesyria.org 0 2348831 2012-02-29 01:04:10
8482599 pennyjobs.com 0 215797 2012-02-29 01:04:16
8482600 madinatyalyoum.com 0 2859230 2012-02-29 01:04:18
8482601 thefriesen.com 0 No Rank 2012-02-29 01:04:19
8482602 thegenealogyresearcher.com 0 7712594 2012-02-29 01:04:20
8482603 thegaragelab.com 0 No Rank 2012-02-29 01:04:20
8482604 thegamerag.com 0 No Rank 2012-02-29 01:04:20
8482605 thegeologistsdirectory.com 0 5210869 2012-02-29 01:04:22
8482606 thegingersuitesalon.com 0 No Rank 2012-02-29 01:04:23
8482607 ura-para.com 0 7799493 2012-02-29 01:04:23
8482608 fastlane.com 0 11641488 2012-02-29 01:04:24
8482609 thegirlincenterfield.com 0 No Rank 2012-02-29 01:04:25
8482610 thegeosource.com 0 No Rank 2012-02-29 01:04:25
8482611 thegogreenlaundry.com 0 No Rank 2012-02-29 01:04:25
8482612 thegirlrevolution.com 0 1476338 2012-02-29 01:04:26
8482613 thegoodyeardentist.com 0 23232702 2012-02-29 01:04:26
8482614 thegolfhotelcrail.com 0 16017402 2012-02-29 01:04:26
8482615 thegrandmauritian.com 0 2898993 2012-02-29 01:04:27
8482616 thegogogo.tv 0 No Rank 2012-02-29 01:04:27
8482617 thegrandwaytheater.com 0 No Rank 2012-02-29 01:04:29
8482618 thegreattribulation.net 0 No Rank 2012-02-29 01:04:30
8482619 thegoldandsilverrefinery.com 0 13485561 2012-02-29 01:04:30
8482620 thegreatestmindsofourtime.com 0 6076134 2012-02-29 01:04:30
8482621 thegreenteam.org 0 11477051 2012-02-29 01:04:31
8482622 thegrowthplace.com 0 No Rank 2012-02-29 01:04:31
8482623 thegreenissue.org 0 No Rank 2012-02-29 01:04:31
8482624 mad-x-ray.de 0 No Rank 2012-02-29 01:04:32
8482625 thehamptonballoon.com 0 No Rank 2012-02-29 01:04:32
8482626 2sunrise.com 0 No Rank 2012-02-29 01:04:32
8482627 thegreatread.com 0 No Rank 2012-02-29 01:04:32
8482628 thehandicraftpalace.com 0 No Rank 2012-02-29 01:04:32
8482629 thehamlethoa.com 0 9715494 2012-02-29 01:04:34
8482630 thehandyrepairman.com 0 No Rank 2012-02-29 01:04:36
8482631 thehaltons.net 0 No Rank 2012-02-29 01:04:36
8482632 theharvestnow.com 0 No Rank 2012-02-29 01:04:37
8482633 theharvardshop.com 0 1411250 2012-02-29 01:04:38
8482634 thehealthandwellnesscenter.net 0 No Rank 2012-02-29 01:04:38
8482635 theherbanalchemist.com 0 11593137 2012-02-29 01:04:39
8482636 theheathergraham.com 0 No Rank 2012-02-29 01:04:39
8482637 theheartstrings.com 0 22364834 2012-02-29 01:04:39
8482638 theharvestfellowship.org 0 No Rank 2012-02-29 01:04:39
8482639 thehimachalnews.com 0 5803486 2012-02-29 01:04:40
8482640 thehendersonpost.com 0 No Rank 2012-02-29 01:04:40
8482641 theheadstonechurch.org 0 No Rank 2012-02-29 01:04:41
8482642 thehonoluluduilawyer.com 0 No Rank 2012-02-29 01:04:42
8482643 thehollidayhouse.com 0 No Rank 2012-02-29 01:04:42
8482644 thehoaxkiller.com 0 6413559 2012-02-29 01:04:42
8482645 thehoodcartel.com 0 No Rank 2012-02-29 01:04:43
8482646 e-florida.de 0 No Rank 2012-02-29 01:04:43
8482647 thehoppershouse.com 0 No Rank 2012-02-29 01:04:45
8482648 theiccsudaipur.com 0 7933352 2012-02-29 01:04:45
8482649 thehousingcenter.org 0 No Rank 2012-02-29 01:04:45
8482650 thehouseofcheese.ca 0 24200206 2012-02-29 01:04:46
8482651 theideafield.com 0 16342166 2012-02-29 01:04:48
8482652 thehumanetouch.org 0 2326161 2012-02-29 01:04:48
8482653 thehowtoloseweightquickly.com 0 2175640 2012-02-29 01:04:48
8482654 thegwtc.com 0 No Rank 2012-02-29 01:04:49
8482655 thehostspace.com 0 24498554 2012-02-29 01:04:49
8482656 theinjuryhelpline.org 0 No Rank 2012-02-29 01:04:49
8482657 theism.net 0 12320107 2012-02-29 01:04:50
8482658 theilliterate.com 0 20927291 2012-02-29 01:04:50
8482659 theinventuresgroup.com 0 No Rank 2012-02-29 01:04:51
8482660 theinnovators.net 0 8674855 2012-02-29 01:04:52
8482661 thefitnessmachines.com 0 1273822 2012-02-29 01:04:52
8482662 theinsightprogram.com 0 13985393 2012-02-29 01:04:52
8482663 theitaliantable.com 0 No Rank 2012-02-29 01:04:52
8482664 thejobtraveller.com 0 No Rank 2012-02-29 01:04:54
8482665 thejoyofbeingretired.com 0 3030148 2012-02-29 01:04:55
8482666 thekaycompany.com 0 No Rank 2012-02-29 01:04:55
8482667 thekeithmorganfoundation.com 0 No Rank 2012-02-29 01:04:55
8482668 thejm3.com 0 12279758 2012-02-29 01:04:56
8482669 thejigisup.net 0 No Rank 2012-02-29 01:04:56
8482670 thejustinianforum.org 0 16829214 2012-02-29 01:04:56
8482671 lygxf.gov.cn 0 5536833 2012-02-29 01:04:57
8482672 theknifeman.com 0 11738889 2012-02-29 01:04:57
8482673 thekmpconsultinggroup.com 0 No Rank 2012-02-29 01:04:57
8482674 matlocks.net 0 No Rank 2012-02-29 01:04:57
8482675 turbodata.ca 0 No Rank 2012-02-29 01:04:59
8482676 theknittingway.com 0 No Rank 2012-02-29 01:05:00
8482677 thekohinoor.net 0 11564074 2012-02-29 01:05:00
8482678 apo24shop.de 0 No Rank 2012-02-29 01:05:01
8482679 thelastageministry.org 0 15350589 2012-02-29 01:05:01
8482680 theldsreligion.com 0 No Rank 2012-02-29 01:05:01
8482681 theleadgenerationking.com 0 23730941 2012-02-29 01:05:02
8482682 thelassitergroup.com 0 No Rank 2012-02-29 01:05:02
8482683 thelearningzoneonline.com 0 7232877 2012-02-29 01:05:03
8482684 moto2010.com 0 No Rank 2012-02-29 01:05:03
8482685 thelearningspa.com 0 No Rank 2012-02-29 01:05:03
8482686 thelegacycleaners.com 0 No Rank 2012-02-29 01:05:05
8482687 thelibertyworshipcenter.com 0 No Rank 2012-02-29 01:05:06
8482688 sschiller.de 0 10220037 2012-02-29 01:05:06
8482689 thelipstickaffiliates.com 0 No Rank 2012-02-29 01:05:06
8482690 theletteredcottage.net 0 87937 2012-02-29 01:05:07
8482691 thelittlehedgehog.com 0 No Rank 2012-02-29 01:05:08
8482692 thelivingroomccsb.com 0 No Rank 2012-02-29 01:05:09
8482693 astrosoft.ru 0 1252996 2012-02-29 01:05:10
8482694 theliveleads.com 0 No Rank 2012-02-29 01:05:13
8482695 thelocalagency.net 0 13208204 2012-02-29 01:05:15
8482696 thelocalclick.com 0 16878267 2012-02-29 01:05:19
8482697 thelostyearsbook.com 0 20749394 2012-02-29 01:05:19
8482698 thelosangelesjournal.com 0 15198275 2012-02-29 01:05:19
8482699 thelunchjournals.com 0 21035855 2012-02-29 01:05:19
8482700 thelodgeronda.com 0 4366155 2012-02-29 01:05:20
8482701 thelollipops.pl 0 13612701 2012-02-29 01:05:20
8482702 thelostworldproject.org 0 No Rank 2012-02-29 01:05:20
8482703 thelookofnature.com 0 No Rank 2012-02-29 01:05:21
8482704 thelpvcollection.com 0 No Rank 2012-02-29 01:05:21
8482705 thelouieeugene.com 0 24062652 2012-02-29 01:05:22
8482706 thelivewater.com 0 No Rank 2012-02-29 01:05:22
8482707 themacmanchicago.com 0 No Rank 2012-02-29 01:05:23
8482708 themarketingwatchdog.com 0 No Rank 2012-02-29 01:05:24
8482709 themapleroomstudio.com 0 No Rank 2012-02-29 01:05:25
8482710 themanorresort.com 0 17396716 2012-02-29 01:05:25
8482711 themastersgolfguide.com 0 7663245 2012-02-29 01:05:25
8482712 themarijuanalogues.com 0 19972306 2012-02-29 01:05:25
8482713 themarketumbrella.com 0 16027192 2012-02-29 01:05:26
8482714 themastersconstruction.com 0 No Rank 2012-02-29 01:05:26
8482715 themauihill.com 0 No Rank 2012-02-29 01:05:27
8482716 themarkleys.net 0 No Rank 2012-02-29 01:05:27
8482717 themathdr.com 0 No Rank 2012-02-29 01:05:28
8482718 themenaps.com 0 13483017 2012-02-29 01:05:30
8482719 themeparkkids.com 0 21781287 2012-02-29 01:05:30
8482720 themetalshopfab.com 0 No Rank 2012-02-29 01:05:30
8482721 themetropolitanschool.com 0 5332522 2012-02-29 01:05:30
8482722 0204movie.vcall.com.tw 0 11125850 2012-02-29 01:05:31
8482723 themesbydesign.co.nz 0 No Rank 2012-02-29 01:05:33
8482724 itbende.nl 0 17225473 2012-02-29 01:05:33
8482725 themga.org 0 6958401 2012-02-29 01:05:33
8482726 themobileautoglass.com 0 12074791 2012-02-29 01:05:35
8482727 themoviereunion.com 0 No Rank 2012-02-29 01:05:40
8482728 hscilabs.com 0 No Rank 2012-02-29 01:05:40
8482729 themonogramstoreonline.com 0 No Rank 2012-02-29 01:05:40
8482730 themormontrail.ca 0 No Rank 2012-02-29 01:05:41
8482731 themombuzz.com 0 245996 2012-02-29 01:05:41
8482732 themountainviewnewspaper.com 0 No Rank 2012-02-29 01:05:41
8482733 themobilepublisher.com 0 No Rank 2012-02-29 01:05:42
8482734 themshow.com 0 24498803 2012-02-29 01:05:43
8482735 thenameisproduct.com 0 7095434 2012-02-29 01:05:45
8482736 thenearpost.net 0 No Rank 2012-02-29 01:05:46
8482737 thendaramountainclub.org 0 No Rank 2012-02-29 01:05:46
8482738 labotal.co.il 0 26578525 2012-02-29 01:05:46
8482739 themysteryoflifesorigin.org 0 No Rank 2012-02-29 01:05:46
8482740 thenatureoflight.com 0 8185602 2012-02-29 01:05:46
8482741 thenaturalmattressstore.com 0 3995014 2012-02-29 01:05:46
8482742 themystictree.com 0 No Rank 2012-02-29 01:05:46
8482743 0204live.bravehost.com 0 12062 2012-02-29 01:05:47
8482744 ukipwatch.org 0 14998861 2012-02-29 01:05:47
8482745 thenestingstork.com 0 11826288 2012-02-29 01:05:48
8482746 thenewmusicindustry.com 0 10734416 2012-02-29 01:05:48
8482747 thematuretube.com 0 187010 2012-02-29 01:05:48
8482748 thenewmanteam.com 0 18172090 2012-02-29 01:05:48
8482749 themostardivingclub.com 0 6328413 2012-02-29 01:05:49
8482750 thenorthwichboat.com 0 10359276 2012-02-29 01:05:51
8482751 thenewwell.com 0 6924467 2012-02-29 01:05:51
8482752 thenthelement.com 0 23731024 2012-02-29 01:05:52
8482753 theolcom.ru 0 10343059 2012-02-29 01:05:52
8482754 thenorthernline.com 0 7242748 2012-02-29 01:05:52
8482755 thenewnixon.org 0 5719067 2012-02-29 01:05:54
8482756 theoaksbedandbreakfast.com 0 No Rank 2012-02-29 01:05:55
8482757 chilhowee.com 0 No Rank 2012-02-29 01:05:57
8482758 theorwell.com 0 11875458 2012-02-29 01:05:58
8482759 theoptionseller.com 0 4423538 2012-02-29 01:05:58
8482760 theorganizationalguru.com 0 No Rank 2012-02-29 01:05:59
8482761 0204movie.xx.org.tw 0 No Rank 2012-02-29 01:05:59
8482762 theothermainecabins.com 0 No Rank 2012-02-29 01:06:01
8482763 0204show.com 0 26638729 2012-02-29 01:06:02
8482764 thepagelessbook.com 0 12853256 2012-02-29 01:06:02
8482765 ura-douga.com 0 5521924 2012-02-29 01:06:03
8482766 theparkinsons.org 0 No Rank 2012-02-29 01:06:03
8482767 thepaincenterdrgomez.com 0 No Rank 2012-02-29 01:06:04
8482768 theparksgroupcommercial.com 0 No Rank 2012-02-29 01:06:04
8482769 thepartnerz.com 0 No Rank 2012-02-29 01:06:06
8482770 thepamplemousse.com 0 No Rank 2012-02-29 01:06:06
8482771 thepattholtsingers.com 0 No Rank 2012-02-29 01:06:06
8482772 thepetcarespecialist.com 0 No Rank 2012-02-29 01:06:08
8482773 thephiladelphiamortgageshop.com 0 No Rank 2012-02-29 01:06:08
8482774 thepauperkings.com 0 No Rank 2012-02-29 01:06:08
8482775 bcciconst.com 0 7975915 2012-02-29 01:06:09
8482776 thephotographerandthegeek.com 0 No Rank 2012-02-29 01:06:10
8482777 canonpowershotelph100hs12m.blogspot.com 0 No Rank 2012-02-29 01:06:12
8482778 thephoneman.info 0 No Rank 2012-02-29 01:06:13
8482779 theperfectsommelier.com 0 No Rank 2012-02-29 01:06:13
8482780 thepilatesgirl.com 0 No Rank 2012-02-29 01:06:14
8482781 mackazlaw.net 0 14979719 2012-02-29 01:06:18
8482782 theplazadt.com 0 No Rank 2012-02-29 01:06:19
8482783 thepintels.com 0 No Rank 2012-02-29 01:06:19
8482784 seo-servis.ru 0 8643654 2012-02-29 01:06:19
8482785 0205188.com 0 No Rank 2012-02-29 01:06:19
8482786 thepokerguru.org 0 15856759 2012-02-29 01:06:20
8482787 theplanningcenter.com 0 7506461 2012-02-29 01:06:20
8482788 theprintablecoupon.com 0 1389714 2012-02-29 01:06:20
8482789 theportcitycorvetteclub.com 0 No Rank 2012-02-29 01:06:21
8482790 thepresentsense.com 0 11089792 2012-02-29 01:06:21
8482791 thepiratebay.dk 0 14803708 2012-02-29 01:06:21
8482792 thepornographyofpower.com 0 No Rank 2012-02-29 01:06:22
8482793 logitechwirelessrechargeableus.blogspot.com 0 No Rank 2012-02-29 01:06:23
8482794 salesamsung46led240hz.blogspot.com 0 No Rank 2012-02-29 01:06:23
8482795 thepromenadeshopsatcenterra.com 0 2943637 2012-02-29 01:06:24
8482796 thepushfactory.com 0 No Rank 2012-02-29 01:06:25
8482797 ankaramuzikkursu.com 0 No Rank 2012-02-29 01:06:25
8482798 theprisminsurancegroup.com 0 No Rank 2012-02-29 01:06:25
8482799 theranchero.com 0 11843407 2012-02-29 01:06:26
8482800 thequayobx.com 0 No Rank 2012-02-29 01:06:26
8482801 thepowerprogram.com 0 No Rank 2012-02-29 01:06:27
8482802 thepyramid.com 0 No Rank 2012-02-29 01:06:27
8482803 therapieentraining.nl 0 No Rank 2012-02-29 01:06:28
8482804 theramg.com 0 No Rank 2012-02-29 01:06:28
8482805 thequeenpub.com 0 21560007 2012-02-29 01:06:28
8482806 thepearlgroup.org 0 14531479 2012-02-29 01:06:29
8482807 thepointlembongan.com 0 6942367 2012-02-29 01:06:31
8482808 therapytoo.com 0 No Rank 2012-02-29 01:06:32
8482809 therenaissancecenterpc.com 0 No Rank 2012-02-29 01:06:32
8482810 theraymondhouseinn.com 0 No Rank 2012-02-29 01:06:32
8482811 therecruitmentacademy.com 0 No Rank 2012-02-29 01:06:33
8482812 thereginaproject.com 0 No Rank 2012-02-29 01:06:33
8482813 therepublicoflife.com 0 13303233 2012-02-29 01:06:34
8482814 0209988.net 0 No Rank 2012-02-29 01:06:34
8482815 theresedesjardinstudio.com 0 No Rank 2012-02-29 01:06:35
8482816 thereelbits.com 0 270940 2012-02-29 01:06:35
8482817 therevivalishere.com 0 No Rank 2012-02-29 01:06:36
8482818 therevivesalonspa.com 0 No Rank 2012-02-29 01:06:36
8482819 therhodesianridgebackclubinc.com 0 9923873 2012-02-29 01:06:37
8482820 thermoform-online.de 0 No Rank 2012-02-29 01:06:37
8482821 theresemurdza.com 0 No Rank 2012-02-29 01:06:37
8482822 thermogenicfatburners.org 0 7277782 2012-02-29 01:06:38
8482823 therockefellergroup.us 0 No Rank 2012-02-29 01:06:39
8482824 efeng.co 0 No Rank 2012-02-29 01:06:40
8482825 thermomix.ru 0 12991600 2012-02-29 01:06:40
8482826 karlovassi.gr 0 3847572 2012-02-29 01:06:40
8482827 theroommerchandise.com 0 No Rank 2012-02-29 01:06:42
8482828 therontaylorgroup.com 0 No Rank 2012-02-29 01:06:42
8482829 therotarianclassic.com 0 No Rank 2012-02-29 01:06:43
8482830 thesacredtours.com 0 No Rank 2012-02-29 01:06:43
8482831 theronsfrozencustard.com 0 20077012 2012-02-29 01:06:43
8482832 therph.com 0 No Rank 2012-02-29 01:06:44
8482833 therufflife.ca 0 No Rank 2012-02-29 01:06:44
8482834 thermologhouses.com 0 6347380 2012-02-29 01:06:45
8482835 thesafetycourse.com 0 No Rank 2012-02-29 01:06:45
8482836 thesantaguide.com 0 13146643 2012-02-29 01:06:47
8482837 thesaundersblog.com 0 4094695 2012-02-29 01:06:48
8482838 020anli.com 0 8273702 2012-02-29 01:06:49
8482839 theseedwichita.com 0 7961962 2012-02-29 01:06:49
8482840 thescoopicecreamshop.com 0 19636393 2012-02-29 01:06:49
8482841 theservantsheart.org 0 No Rank 2012-02-29 01:06:50
8482842 thesecretofsuccess.info 0 No Rank 2012-02-29 01:06:50
8482843 theseotraffic.com 0 4113595 2012-02-29 01:06:50
8482844 thesexmyth.com 0 12413242 2012-02-29 01:06:51
8482845 020amjj.com 0 No Rank 2012-02-29 01:06:51
8482846 thereishopechurch.com 0 18423301 2012-02-29 01:06:51
8482847 theschultzgroupofny.com 0 No Rank 2012-02-29 01:06:51
8482848 ura-ne-ta.com 0 126146 2012-02-29 01:06:52
8482849 thesermonexchange.org 0 No Rank 2012-02-29 01:06:52
8482850 lowflying.com 0 No Rank 2012-02-29 01:06:52
8482851 thesegreentimes.com 0 No Rank 2012-02-29 01:06:52
8482852 theshakespearepapers.com 0 No Rank 2012-02-29 01:06:53
8482853 cmconnect.org 0 594143 2012-02-29 01:06:53
8482854 theshavedreport.com 0 No Rank 2012-02-29 01:06:55
8482855 theshowroomcollections.com 0 17413746 2012-02-29 01:06:55
8482856 thesingersstudio.com 0 No Rank 2012-02-29 01:06:56
8482857 theshipmate.com 0 12112476 2012-02-29 01:06:56
8482858 thesluggers.com 0 4043927 2012-02-29 01:06:57
8482859 theshul.org 0 3708703 2012-02-29 01:06:58
8482860 kontaktwerk.net 0 No Rank 2012-02-29 01:06:58
8482861 thesiegerts.com 0 No Rank 2012-02-29 01:06:59
8482862 thesmartlink.com 0 No Rank 2012-02-29 01:07:00
8482863 thesheheetribe.com 0 No Rank 2012-02-29 01:07:00
8482864 thesocogroup.com 0 16007019 2012-02-29 01:07:01
8482865 thesoccerazzi.com 0 No Rank 2012-02-29 01:07:01
8482866 020bj.com.cn 0 5969286 2012-02-29 01:07:01
8482867 thesoulmasters.net 0 19186002 2012-02-29 01:07:02
8482868 dotname.co.kr 0 165901 2012-02-29 01:07:03
8482869 thesoundofbaseball.com 0 No Rank 2012-02-29 01:07:03
8482870 0205635.com 0 No Rank 2012-02-29 01:07:04
8482871 thespencefarm.com 0 8244253 2012-02-29 01:07:05
8482872 thespringsmesquite.com 0 14479991 2012-02-29 01:07:06
8482873 thesportsboxoffice.com 0 1071811 2012-02-29 01:07:06
8482874 cxt.top10reviews.co.cc 0 No Rank 2012-02-29 01:07:06
8482875 thesportsblog.com 0 No Rank 2012-02-29 01:07:06
8482876 thestadiumcommunities.com 0 No Rank 2012-02-29 01:07:07
8482877 thespurlockgroup.com 0 No Rank 2012-02-29 01:07:07
8482878 caseyhays.biz 0 23416589 2012-02-29 01:07:08
8482879 020baoche.cn 0 No Rank 2012-02-29 01:07:09
8482880 dnacascais.pt 0 1824499 2012-02-29 01:07:11
8482881 thesoupguy.net 0 19636397 2012-02-29 01:07:11
8482882 id2.pspsell.com 0 20803442 2012-02-29 01:07:19
8482883 thesupplementscam.com 0 10382151 2012-02-29 01:07:19
8482884 thestorykeeper.com 0 22353316 2012-02-29 01:07:19
8482885 thesunshinehome.com 0 12567515 2012-02-29 01:07:20
8482886 thesusiereizodfoundation.org 0 No Rank 2012-02-29 01:07:20
8482887 thetaoofscott.com 0 No Rank 2012-02-29 01:07:20
8482888 theswissmortgage.com 0 399301 2012-02-29 01:07:21
8482889 thetachigamma.org 0 No Rank 2012-02-29 01:07:21
8482890 thestjames.co.nz 0 16552538 2012-02-29 01:07:22
8482891 thesymptomsofpregnancy.com 0 23966251 2012-02-29 01:07:22
8482892 theteachergiftshop.com 0 No Rank 2012-02-29 01:07:23
8482893 thetaxishop.com 0 11979959 2012-02-29 01:07:23
8482894 thetaxpractice.net 0 No Rank 2012-02-29 01:07:25
8482895 thetidswells.com 0 No Rank 2012-02-29 01:07:25
8482896 thetelevisiongroup.com 0 No Rank 2012-02-29 01:07:25
8482897 thetheatreschool.net 0 No Rank 2012-02-29 01:07:25
8482898 thetherapyoption.com 0 No Rank 2012-02-29 01:07:26
8482899 dombal.com.pl 0 951589 2012-02-29 01:07:27
8482900 thetimandbobshow.com 0 20231543 2012-02-29 01:07:27
8482901 thetidalpool.com 0 No Rank 2012-02-29 01:07:27
8482902 020chuangxin.com 0 No Rank 2012-02-29 01:07:28
8482903 thetreeamigos.com 0 18098448 2012-02-29 01:07:30
8482904 theunknowngallery.com 0 No Rank 2012-02-29 01:07:31
8482905 theturningpoint.org 0 No Rank 2012-02-29 01:07:32
8482906 theunderground.dk 0 27664127 2012-02-29 01:07:32
8482907 theufopages.com 0 No Rank 2012-02-29 01:07:32
8482908 thethreehouses.com 0 15197494 2012-02-29 01:07:33
8482909 cujam.ca 0 27147004 2012-02-29 01:07:33
8482910 theultramarathon.com 0 No Rank 2012-02-29 01:07:33
8482911 theunitlist.com 0 1155296 2012-02-29 01:07:33
8482912 theurbanblogger.net 0 5037629 2012-02-29 01:07:34
8482913 thevalvetek.com 0 5366784 2012-02-29 01:07:34
8482914 thetorque.in 0 8794519 2012-02-29 01:07:35
8482915 thetwofive.net 0 10726795 2012-02-29 01:07:35
8482916 thetotalpackagesolution.com 0 No Rank 2012-02-29 01:07:36
8482917 thever.com 0 No Rank 2012-02-29 01:07:36
8482918 thevenuepages.com 0 16164579 2012-02-29 01:07:37
8482919 motogp.com.cn 0 No Rank 2012-02-29 01:07:38
8482920 theverteproject.com 0 No Rank 2012-02-29 01:07:38
8482921 theverybestmagazine.com 0 No Rank 2012-02-29 01:07:38
8482922 thevisionchest.com 0 No Rank 2012-02-29 01:07:38
8482923 theviejaschoolproject.org 0 No Rank 2012-02-29 01:07:39
8482924 thevisualword.org 0 No Rank 2012-02-29 01:07:40
8482925 020cmyk.com 0 No Rank 2012-02-29 01:07:41
8482926 thewaterfrontatgoldenisles.com 0 No Rank 2012-02-29 01:07:42
8482927 thewaterexpress.com 0 No Rank 2012-02-29 01:07:42
8482928 thewaterfrontcc.com 0 No Rank 2012-02-29 01:07:43
8482929 thewateroasis.com 0 15336785 2012-02-29 01:07:44
8482930 theweddingcarriage.com 0 No Rank 2012-02-29 01:07:45
8482931 theveterinarytechnician.com 0 No Rank 2012-02-29 01:07:45
8482932 websiteaz.com 0 1719950 2012-02-29 01:07:46
8482933 thewelshtouch.com 0 No Rank 2012-02-29 01:07:46
8482934 thewhigmaleeries.net 0 No Rank 2012-02-29 01:07:48
8482935 thewhiteblur.com 0 13647410 2012-02-29 01:07:48
8482936 sunmoon.co.jp 0 1766469 2012-02-29 01:07:49
8482937 thewildburro.com 0 No Rank 2012-02-29 01:07:50
8482938 thewholeplate.com 0 25060678 2012-02-29 01:07:51
8482939 thewomb.com 0 27233612 2012-02-29 01:07:51
8482940 theworldofwren.com 0 No Rank 2012-02-29 01:07:52
8482941 thewinevirgin.com 0 9299385 2012-02-29 01:07:53
8482942 theweb2u.com 0 7598763 2012-02-29 01:07:53
8482943 thewowfactorofatlanta.com 0 9126286 2012-02-29 01:07:54
8482944 thezimmermangroup.com 0 No Rank 2012-02-29 01:07:54
8482945 thezer0.com 0 795520 2012-02-29 01:07:55
8482946 thiborganisatie.nl 0 4023275 2012-02-29 01:07:55
8482947 thiele-fotografie.de 0 No Rank 2012-02-29 01:07:56
8482948 thiemig.de 0 18819198 2012-02-29 01:07:57
8482949 thiagopontes.com 0 1530069 2012-02-29 01:07:57
8482950 thilloy.com 0 No Rank 2012-02-29 01:08:00
8482951 thierrylenain.net 0 No Rank 2012-02-29 01:08:00
8482952 020fg.com 0 No Rank 2012-02-29 01:08:00
8482953 thinkgreat90.com 0 9937888 2012-02-29 01:08:01
8482954 thinkchange.cn 0 14296471 2012-02-29 01:08:01
8482955 thinkntc.com 0 No Rank 2012-02-29 01:08:02
8482956 netsetman.com 0 595031 2012-02-29 01:08:02
8482957 thinkellipsis.com 0 No Rank 2012-02-29 01:08:02
8482958 thietbigiaoduc.edu.vn 0 No Rank 2012-02-29 01:08:04
8482959 020flowers.co.uk 0 No Rank 2012-02-29 01:08:05
8482960 thinkhtcincredible.com 0 17701148 2012-02-29 01:08:05
8482961 thinkingaboutnutrition.com 0 No Rank 2012-02-29 01:08:05
8482962 thienbang.com 0 No Rank 2012-02-29 01:08:06
8482963 thinktoy.com 0 13858867 2012-02-29 01:08:06
8482964 thirdhelix.com 0 No Rank 2012-02-29 01:08:10
8482965 thinkwickless.com 0 No Rank 2012-02-29 01:08:11
8482966 youthpole.com 0 636799 2012-02-29 01:08:12
8482967 thirstybeachlandscaping.com 0 6029109 2012-02-29 01:08:12
8482968 thisiskaleena.com 0 15254066 2012-02-29 01:08:14
8482969 onwebapps.com 0 No Rank 2012-02-29 01:08:20
8482970 thomasbrooksphotography.com 0 No Rank 2012-02-29 01:08:20
8482971 thomasbrainphotography.com 0 No Rank 2012-02-29 01:08:20
8482972 thomas-guettler.de 0 1593118 2012-02-29 01:08:21
8482973 thistlehall.org.nz 0 15965206 2012-02-29 01:08:21
8482974 020gz.com 0 1353761 2012-02-29 01:08:21
8482975 thomasjfletcher.com 0 No Rank 2012-02-29 01:08:22
8482976 thomaseverlund.se 0 No Rank 2012-02-29 01:08:22
8482977 thomascoppers.com 0 No Rank 2012-02-29 01:08:22
8482978 thomasfriedl.de 0 No Rank 2012-02-29 01:08:22
8482979 gezondevoeding1.nl 0 No Rank 2012-02-29 01:08:23
8482980 020hair.com 0 3019162 2012-02-29 01:08:25
8482981 thinkstrat.biz 0 No Rank 2012-02-29 01:08:25
8482982 thompsonorthodontics.com 0 12744513 2012-02-29 01:08:26
8482983 sexyprive.com 0 1679105 2012-02-29 01:08:26
8482984 thornley.com 0 No Rank 2012-02-29 01:08:26
8482985 thongtinduhoc.com 0 No Rank 2012-02-29 01:08:27
8482986 thonex.info 0 No Rank 2012-02-29 01:08:27
8482987 thorntonworks.com 0 No Rank 2012-02-29 01:08:27
8482988 thoroughbredlakeslakeworth.com 0 No Rank 2012-02-29 01:08:27
8482989 thomastownparish.ie 0 No Rank 2012-02-29 01:08:28
8482990 thorsensgreenhouse.com 0 19281268 2012-02-29 01:08:28
8482991 thornburytkd.com 0 No Rank 2012-02-29 01:08:28
8482992 thorsepoile.online.fr 0 12983 2012-02-29 01:08:30
8482993 thorphillipsaudio.com 0 No Rank 2012-02-29 01:08:31
8482994 thoughtmedia.com 0 1155528 2012-02-29 01:08:31
8482995 thousandtrailsblog.com 0 No Rank 2012-02-29 01:08:33
8482996 formstudio.cz 0 563522 2012-02-29 01:08:33
8482997 threedollarbillcomedy.com 0 No Rank 2012-02-29 01:08:34
8482998 shop.savit.de 0 950809 2012-02-29 01:08:34
8482999 thpt-nguyenbinhkhiem-cs.edu.vn 0 1823918 2012-02-29 01:08:35